Weather History for White Mountain, AK

Change the Weather History Date:

Wednesday, January 9, 2013

  Actual Average (PAKK) Record (PAKK)
Temperature  
Mean Temperature 16 °F -  
Max Temperature 19 °F 6 °F 35 °F (2011)
Min Temperature 12 °F 0 °F -16 °F (2008)
Degree Days  
Heating Degree Days 50    
Moisture  
Dew Point 13 °F    
Average Humidity 93    
Maximum Humidity 100    
Minimum Humidity 86    
Precipitation  
Precipitation 0.00 in - - ()
Sea Level Pressure  
Sea Level Pressure 29.89 in    
Wind  
Wind Speed 4 mph (NE)    
Max Wind Speed 9 mph    
Max Gust Speed -    
Visibility 4 miles    
Events Fog , Snow    
Averages and records for this station are not official NWS values.
T = Trace of Precipitation, MM = Missing Value Source: NWS Daily Summary

Daily Weather History Graph

Daily Weather History Graph

Search for Another Location

Airport:

Trip Planner

Search our weather history database for the weather conditions in past years. The results will help you decide how hot, cold, wet, or windy it might be!

Date:

Astronomy

Jan. 09, 2013 Rise Set
Actual Time 11:40 AM AKST 4:22 PM AKST
Civil Twilight 10:25 AM AKST 5:36 PM AKST
Nautical Twilight 9:17 AM AKST 6:44 PM AKST
Astronomical Twilight 8:18 AM AKST 7:44 PM AKST
Moon 9:35 AM AKST (1/9) 2:34 PM AKST (1/9)
Length of Visible Light 7h 11m
Length of Day
4h 42m
Waning Crescent, 5% of the Moon is Illuminated
Jan 9
Waning Crescent
Jan 11
New
Jan 18
First Quarter
Jan 26
Full
Feb 3
Last Quarter

Hourly Weather History & Observations

Time (AKST) Temp. Windchill Dew Point Humidity Pressure Visibility Wind Dir Wind Speed Gust Speed Precip Events Conditions
12:51 AM 14.0 °F 6.5 °F 12.2 °F 93% 30.03 in 10.0 mi East 4.6 mph - 0.00 in   Overcast
12:58 AM 12.9 °F 5.2 °F 12.0 °F 96% 30.06 in 10.0 mi East 4.6 mph - 0.00 in   Overcast
1:14 AM 14.0 °F 8.2 °F 12.2 °F 93% 30.03 in 2.5 mi East 3.5 mph - N/A   Overcast
1:19 AM 14.0 °F 8.2 °F 12.2 °F 93% 30.04 in 3.0 mi ESE 3.5 mph - N/A   Overcast
1:29 AM 14.0 °F 8.2 °F 12.2 °F 93% 30.03 in 2.0 mi ESE 3.5 mph - N/A   Overcast
1:42 AM 14.0 °F 6.5 °F 12.2 °F 93% 30.03 in 1.5 mi ESE 4.6 mph - N/A   Overcast
1:49 AM 14.0 °F 8.2 °F 12.2 °F 93% 30.04 in 1.0 mi SE 3.5 mph - N/A   Overcast
1:53 AM 14.0 °F 8.2 °F 12.2 °F 93% 30.04 in 0.8 mi SSE 3.5 mph - N/A   Overcast
1:58 AM 14.0 °F 8.2 °F 12.9 °F 95% 30.08 in 1.0 mi SSE 3.5 mph - N/A   Overcast
2:08 AM 14.0 °F 8.2 °F 12.2 °F 93% 30.04 in 1.2 mi ESE 3.5 mph - N/A   Overcast
2:26 AM 14.0 °F 5.1 °F 14.0 °F 100% 30.04 in 1.0 mi SE 5.8 mph - N/A   Overcast
2:31 AM 14.0 °F 6.5 °F 14.0 °F 100% 30.04 in 0.8 mi ESE 4.6 mph - 0.00 in Snow Light Snow
2:39 AM 14.0 °F 8.2 °F 14.0 °F 100% 30.03 in 0.5 mi East 3.5 mph - 0.00 in Fog , Snow Light Snow
2:57 AM 15.1 °F - 14.0 °F 95% 30.07 in 0.8 mi Calm Calm - 0.00 in   Overcast
3:22 AM 15.8 °F 10.2 °F 12.2 °F 86% 30.03 in 0.5 mi East 3.5 mph - 0.00 in Fog Light Freezing Fog
3:30 AM 15.8 °F 10.2 °F 12.2 °F 86% 30.03 in 1.0 mi ESE 3.5 mph - 0.00 in   Overcast
3:48 AM 15.8 °F 8.6 °F 12.2 °F 86% 30.03 in 1.2 mi East 4.6 mph - 0.00 in   Overcast
3:52 AM 15.8 °F 10.2 °F 12.2 °F 86% 30.03 in 1.0 mi ENE 3.5 mph - 0.00 in   Overcast
3:57 AM 15.1 °F - 12.9 °F 91% 30.07 in 1.2 mi Calm Calm - 0.00 in   Overcast
4:06 AM 14.0 °F 8.2 °F 12.2 °F 93% 30.03 in 2.5 mi East 3.5 mph - N/A   Overcast
4:33 AM 14.0 °F 8.2 °F 12.2 °F 93% 30.02 in 1.8 mi NE 3.5 mph - N/A   Overcast
4:43 AM 14.0 °F - 12.2 °F 93% 30.02 in 2.0 mi Calm Calm - N/A   Overcast
4:58 AM 14.0 °F 8.2 °F 12.9 °F 95% 30.05 in 2.5 mi North 3.5 mph - N/A   Overcast
5:16 AM 14.0 °F 6.5 °F 12.2 °F 93% 30.01 in 3.0 mi North 4.6 mph - N/A   Overcast
5:23 AM 14.0 °F 5.1 °F 12.2 °F 93% 30.00 in 2.5 mi North 5.8 mph - N/A   Overcast
5:34 AM 14.0 °F 5.1 °F 12.2 °F 93% 30.00 in 3.0 mi North 5.8 mph - N/A   Overcast
5:56 AM 14.0 °F 6.5 °F 12.2 °F 93% 30.00 in 7.0 mi NNE 4.6 mph - N/A   Overcast
6:07 AM 14.0 °F 5.1 °F 12.2 °F 93% 29.99 in 4.0 mi NNE 5.8 mph - N/A   Overcast
6:16 AM 14.0 °F 2.9 °F 12.2 °F 93% 29.99 in 2.5 mi NNE 8.1 mph - N/A   Overcast
6:23 AM 14.0 °F 3.9 °F 12.2 °F 93% 29.99 in 4.0 mi NNE 6.9 mph - N/A   Overcast
6:58 AM 12.9 °F 2.6 °F 12.0 °F 96% 30.01 in 10.0 mi NNE 6.9 mph - N/A   Overcast
7:23 AM 12.2 °F 1.7 °F 12.2 °F 100% 29.97 in 10.0 mi North 6.9 mph - N/A   Overcast
7:58 AM 12.9 °F 1.6 °F 10.9 °F 92% 29.99 in 10.0 mi North 8.1 mph - N/A   Overcast
8:38 AM 12.2 °F 1.7 °F 10.4 °F 92% 29.95 in 10.0 mi North 6.9 mph - N/A   Overcast
8:58 AM 12.9 °F 3.8 °F 10.9 °F 92% 29.98 in 10.0 mi North 5.8 mph - N/A   Overcast
9:36 AM 12.2 °F 2.9 °F 10.4 °F 92% 29.93 in 10.0 mi North 5.8 mph - N/A   Overcast
9:58 AM 12.0 °F 2.7 °F 10.0 °F 92% 29.96 in 10.0 mi NNE 5.8 mph - N/A   Overcast
10:58 AM 12.9 °F 1.6 °F 10.9 °F 92% 29.93 in 10.0 mi NNE 8.1 mph - N/A   Mostly Cloudy
11:30 AM 12.2 °F 1.7 °F 10.4 °F 92% 29.88 in 1.0 mi NNE 6.9 mph - N/A   Scattered Clouds
11:40 AM 12.2 °F 1.7 °F 10.4 °F 92% 29.87 in 10.0 mi NNE 6.9 mph - N/A   Partly Cloudy
11:58 AM 12.0 °F -0.4 °F 10.0 °F 92% 29.91 in 10.0 mi North 9.2 mph - N/A   Clear
12:58 PM 12.9 °F 1.6 °F 10.9 °F 92% 29.88 in 10.0 mi NNE 8.1 mph - N/A   Overcast
1:58 PM 15.1 °F 5.2 °F 12.9 °F 91% 29.85 in 10.0 mi NE 6.9 mph - N/A   Overcast
2:58 PM 16.0 °F 7.4 °F 14.0 °F 92% 29.81 in 10.0 mi North 5.8 mph - N/A   Overcast
3:58 PM 16.0 °F 5.3 °F 14.0 °F 92% 29.78 in 10.0 mi NE 8.1 mph - N/A   Overcast
4:58 PM 17.1 °F 5.8 °F 15.1 °F 92% 29.75 in 10.0 mi East 9.2 mph - N/A   Overcast
5:58 PM 18.0 °F 9.8 °F 16.0 °F 92% 29.71 in 10.0 mi NNE 5.8 mph - N/A   Overcast
6:58 PM 19.0 °F 11.1 °F 16.0 °F 88% 29.69 in 10.0 mi East 5.8 mph - N/A   Overcast
7:58 PM 19.0 °F - 16.0 °F 88% 29.67 in 5.0 mi Calm Calm - 0.00 in Snow Light Snow
8:20 PM 19.4 °F 11.5 °F 15.8 °F 86% 29.63 in 2.5 mi NNW 5.8 mph - 0.00 in Snow Light Snow
8:33 PM 17.6 °F 12.3 °F 15.8 °F 93% 29.63 in 1.5 mi North 3.5 mph - 0.00 in Snow Light Snow
8:42 PM 17.6 °F 12.3 °F 15.8 °F 93% 29.62 in 1.0 mi NNW 3.5 mph - 0.00 in Snow Light Snow
8:46 PM 17.6 °F 10.7 °F 15.8 °F 93% 29.62 in 1.2 mi North 4.6 mph - 0.00 in Snow Light Snow
9:10 PM 17.6 °F - 15.8 °F 93% 29.61 in 2.0 mi Calm Calm - 0.00 in Snow Light Snow
9:29 PM 17.6 °F 12.3 °F 15.8 °F 93% 29.60 in 1.5 mi North 3.5 mph - 0.00 in Snow Light Snow
9:58 PM 19.0 °F 11.1 °F 17.1 °F 92% 29.63 in 1.8 mi NNE 5.8 mph - 0.00 in Snow Light Snow
10:41 PM 19.4 °F - 17.6 °F 93% 29.58 in 1.2 mi Calm Calm - 0.00 in Snow Light Snow
10:45 PM 19.4 °F - 17.6 °F 93% 29.58 in 1.0 mi Calm Calm - 0.00 in Snow Light Snow
10:58 PM 19.9 °F - 18.0 °F 92% 29.61 in 1.2 mi Calm Calm - 0.00 in Snow Light Snow
11:11 PM 19.4 °F - 17.6 °F 93% 29.58 in 2.0 mi Calm Calm - 0.00 in Snow Light Snow
11:51 PM 19.4 °F 11.5 °F 19.4 °F 100% 29.57 in 1.8 mi ENE 5.8 mph - 0.00 in Snow Light Snow
11:57 PM 19.9 °F 13.4 °F 19.0 °F 96% 29.61 in 1.0 mi Variable 4.6 mph - 0.00 in Snow Light Snow